Location: Hodgson Observatory
(42.9992°N, 96.7577°W)
Time: 05:24:08
(UTC-05:00)

Daily predictions for brighter satellites

Satellite Brightness Start Highest point End
(mag) Time Altitude Azimuth Time Altitude Azimuth Time Altitude Azimuth
SL-16 R/B 4.0 03:20:48 32° NNE 03:20:48 32° NNE 03:24:36 10° N
ATLAS 2AS CENTAUR R/B 3.7 03:21:15 50° NNE 03:21:15 50° NNE 03:27:05 10° NNE
Resurs 1-4 Rocket 4.1 03:31:31 10° NNE 03:34:08 25° NE 03:34:08 25° NE
Lacrosse 5 rocket 4.2 03:53:31 18° NE 03:53:31 18° NE 03:54:39 10° NE
Cosmos 2333 Rocket 3.6 03:47:19 10° N 03:52:32 35° NE 03:57:40 10° ESE
Okean O Rocket 4.2 03:57:49 10° NE 04:00:24 16° E 04:00:24 16° E
Lacrosse 5 3.4 04:18:00 30° E 04:18:00 30° E 04:21:24 10° ENE
Cosmos 2237 Rocket 3.2 04:12:06 10° NNW 04:17:30 43° ENE 04:22:49 10° SE
ATLAS 5 CENTAUR R/B 3.1 04:19:08 21° NNW 04:23:04 52° NE 04:29:19 10° SE
NOSS 3-2 (C) 4.3 04:17:32 10° NNW 04:24:55 64° NE 04:32:54 10° SE
Cosmos 1980 4.1 04:25:44 10° NNW 04:31:22 59° ENE 04:36:58 10° SE
ARIANE 5 R/B 3.8 04:27:25 10° N 04:30:10 31° N 04:30:10 31° N
Cosmos 2219 4.0 04:34:25 40° NNW 04:34:25 40° NNW 04:38:19 10° NNE
SL-16 R/B 4.0 04:31:58 10° N 04:36:55 29° NE 04:41:51 10° ESE
RESURS DK-1 3.9 04:46:00 33° ESE 04:46:00 33° ESE 04:49:36 10° NE
Gbstr 26 Del rocket 4.3 04:45:46 64° SW 04:45:59 65° SW 04:53:56 10° SE
Cosmos 1680 Rocket 3.8 04:43:28 10° NNW 04:48:45 64° ENE 04:53:57 10° SSE
Cosmos 1727 Rocket 4.2 04:46:01 34° SSE 04:48:51 68° E 04:55:08 10° NNE
NOSS 3-4 (A) 3.6 04:48:16 59° S 04:49:26 74° ESE 04:55:58 10° NE
NOSS 3-4 (C) 3.6 04:48:21 59° S 04:49:32 73° ESE 04:56:05 10° NE
CZ-2D R/B 2.9 04:45:31 10° N 04:49:10 40° NNW 04:49:10 40° NNW
Cosmos 2227 Rocket 2.4 04:49:36 55° SSE 04:50:37 65° ESE 04:56:14 10° NNE
Cosmos 2219 Rocket 4.3 04:50:19 10° NNW 05:02:32 - S 04:50:57 13° NNW
Cosmos 2297 Rocket 2.7 04:57:49 35° SSE 05:00:00 56° ESE 05:05:32 10° NNE
SL-16 R/B 4.0 05:05:54 21° NW 05:05:54 21° NW 05:08:07 10° NNW
PSLV R/B 4.0 05:02:54 10° NNE 05:06:38 71° NNE 05:06:38 71° NNE
ATLAS 2AS CENTAUR R/B 4.3 05:08:41 22° WNW 05:11:25 26° NNW 05:18:02 10° NNE
NOSS 0 Rocket 3.9 05:07:39 10° NW 05:13:44 56° WSW 05:19:47 10° S
IRS-1C Rocket 4.0 05:09:13 10° NNE 05:14:32 89° WNW 05:16:35 39° SSW
MOS 1-B 4.4 05:09:07 10° N 05:14:44 54° WNW 05:15:27 50° W
Resurs 1-4 Rocket 3.2 05:11:29 10° N 05:15:12 30° NW 05:15:12 30° NW
CZ-4B DEB 4.4 05:10:48 10° NNE 05:16:18 70° ESE 05:20:39 16° S
EXPRESS MD2 3.9 05:16:24 42° N 05:16:41 43° NNE 05:21:18 10° E
Cosmos 1153 Rocket 4.4 05:10:26 10° N 05:16:48 84° W 05:23:11 10° S
Cosmos 1934 Rocket 4.5 05:11:46 10° NNW 05:16:46 38° WNW 05:16:46 38° WNW
Cosmos 2344 3.9 05:16:59 38° WSW 05:19:54 57° NW 05:28:49 10° NNE
Thor Agena Rocket 3.9 05:15:26 10° SSE 05:20:40 67° ENE 05:25:57 10° N
Cosmos 1605 Rocket 4.0 05:14:48 10° NNW 05:20:45 54° W 05:23:37 30° SSW
PAYLOAD B 4.1 05:22:09 10° NNE 05:27:41 84° WNW 05:31:22 22° SSW
CZ-4B R/B 3.0 05:23:19 10° NNE 05:27:43 86° WNW 05:29:35 35° SSW
Cosmos 1339 Rocket 4.4 05:24:12 21° SSW 05:28:37 72° W 05:35:03 10° N
Cosmos 1025 Rocket 2.9 05:28:00 52° SSW 05:28:57 73° W 05:33:17 10° N
Lacrosse 5 rocket 3.3 05:29:15 20° NW 05:30:01 21° NNW 05:33:26 10° NNE
Cosmos 2082 3.6 05:28:45 40° SW 05:30:43 66° WNW 05:36:20 10° NNE
Cosmos 2333 Rocket 2.6 05:31:35 10° NW 05:36:48 37° WSW 05:41:57 10° S
Okean O Rocket 1.8 05:32:54 10° N 05:37:10 49° WNW 05:37:51 45° WSW
Cosmos 2098 Rocket 4.3 05:33:43 10° N 05:37:21 41° E 05:41:53 10° SSE
NOSS 3-2 (A) 4.2 05:30:41 10° NW 05:37:49 46° WSW 05:45:23 10° S
Cosmos 1606 Rocket 3.5 05:38:22 10° NNW 05:42:42 61° W 05:46:58 10° S
Okean 2 3.3 05:39:28 16° S 05:42:47 89° SE 05:46:58 10° N
DELTA 2 R/B (1) 4.2 05:42:40 26° SW 05:45:19 44° SSE 05:50:36 10° E
Meteor 1-19 Rocket 4.4 05:47:24 22° SW 05:50:49 49° WNW 05:56:15 10° N
Delta 2 Rocket 4.4 05:50:41 24° SSW 05:51:11 25° S 05:54:11 10° SE
Cosmos 1726 Rocket 3.6 05:49:25 10° NNW 05:53:43 55° W 05:57:58 10° S
Cosmos 1666 2.8 05:50:34 10° NNW 05:54:20 52° W 05:58:04 10° S
Cosmos 2061 Rocket 3.9 05:49:20 10° N 05:55:38 75° W 06:01:59 10° S
Cosmos 1898 Rocket 3.5 05:50:25 10° SSW 05:55:44 86° ESE 06:01:04 10° NNE
Tiangong 1 0.9 05:55:30 51° WSW 05:56:08 80° S 05:59:11 10° E
CZ-3A R/B 3.1 05:52:57 11° NW 05:57:07 87° NE 06:07:24 10° SE
CZ-2C R/B 4.4 05:55:38 25° SW 05:57:07 30° W 06:01:13 10° NW
CZ-4B R/B 3.4 05:53:02 10° N 05:58:13 49° WNW 06:02:41 14° SW
Cosmos 2100 Rocket 4.0 05:52:41 10° NNW 05:58:50 63° W 06:05:02 10° S
Cosmos 1802 Rocket 3.9 05:52:55 10° N 05:59:05 79° W 06:05:12 10° S
Lacrosse 5 2.3 05:57:13 26° W 05:59:42 48° NW 06:04:37 10° NE
Cosmos 2237 Rocket 2.9 05:56:34 10° NW 06:01:20 29° WSW 06:06:03 10° SSW
Cosmos 1602 Rocket 4.3 05:59:15 10° S 06:03:35 55° E 06:07:55 10° NNE
Cosmos 292 Rocket 4.0 06:01:01 10° NNW 06:05:40 46° WSW 06:10:17 10° S
Meteor 2-4 Rocket 4.0 06:00:13 10° SSW 06:05:52 51° WNW 06:11:40 10° N
Cosmos 1892 Rocket 3.8 06:01:56 12° SSW 06:05:56 48° WNW 06:10:18 10° N
Cosmos 858 Rocket 4.5 06:01:04 10° SSW 06:06:20 86° WNW 06:11:39 10° NNE
ATLAS 5 CENTAUR R/B 3.0 06:02:18 10° NW 06:07:42 33° WSW 06:13:23 10° S
Cosmos 1937 Rocket 3.6 06:04:28 10° SSW 06:09:42 82° ESE 06:15:00 10° NNE
Meteor 1-23 Rocket 4.4 06:04:42 10° SSW 06:10:09 51° WNW 06:15:42 10° N
Cosmos 1725 Rocket 4.3 06:05:16 10° N 06:11:36 75° E 06:17:51 10° SSE
PSLV R/B 3.7 06:07:25 10° N 06:11:39 52° WNW 06:15:49 10° SSW
ADEOS II 2.1 06:08:21 10° N 06:13:35 67° WNW 06:18:47 10° SSW
ADEOS Rocket 3.4 06:06:38 10° N 06:13:42 57° WNW 06:20:03 10° SW
CENTAUR R/B 3.2 06:06:16 10° NW 06:14:08 88° ENE 06:22:29 10° SE
Meteor PRIRODA 3.7 06:17:00 10° N 06:20:41 56° WNW 06:24:18 10° SSW
SL-16 R/B 2.5 06:15:50 10° NW 06:21:13 45° WSW 06:26:35 10° S
USA 129 1.4 06:21:16 10° S 06:23:11 52° WSW 06:24:58 10° NNW
RESURS DK-1 3.6 06:21:58 17° W 06:23:59 24° NW 06:27:23 10° N
Cosmos 2228 3.3 06:21:00 10° NNW 06:25:14 46° W 06:29:24 10° SSW
Cosmos 1812 Rocket 3.8 06:23:10 10° N 06:27:38 77° E 06:32:05 10° SSE
Cosmos 1346 Rocket 4.0 06:26:51 14° WSW 06:29:19 23° WNW 06:32:32 10° NNW
NOSS 2-2 (C) 3.9 06:25:52 10° SSW 06:29:56 68° ESE 06:34:40 10° NE
NOSS 2-2 (E) 3.7 06:27:38 10° SSW 06:31:47 79° ESE 06:36:41 10° NE
Cosmos 2016 Rocket 4.2 06:28:16 10° NNW 06:34:22 50° W 06:40:22 10° SSW
Cosmos 2227 Rocket 3.5 06:31:29 12° W 06:35:09 22° NW 06:39:31 10° N
OPS 6432 4.3 06:36:54 10° SW 06:40:15 58° NW 06:43:18 10° NNE
BREEZE M DEB (TANK) 4.2 06:36:43 10° WNW 06:40:25 48° N 06:52:54 10° ENE
Okean-O 3.3 06:36:29 10° N 06:40:30 34° WNW 06:44:29 10° SW
Cosmos 2297 Rocket 3.3 06:39:50 10° WSW 06:44:24 25° NW 06:49:01 10° N
Cosmos 2058 Rocket 4.3 06:41:16 10° NW 06:44:32 21° W 06:47:47 10° SW
Iridium 4 Rocket 4.2 06:44:46 10° SSE 06:49:36 56° E 06:54:02 10° NNE
CZ-4B R/B 4.1 06:46:13 10° N 06:49:58 43° WNW 06:53:35 10° SW
BREEZE-M DEB (TANK) 3.5 06:39:41 10° WNW 06:51:09 61° SW 06:54:37 10° SE
Aureole 2 Rocket 3.7 06:50:05 10° NW 06:52:36 19° W 06:54:57 10° SSW
Cosmos 2123 Rocket 4.1 06:46:45 10° SSW 06:52:46 54° WNW 06:58:49 10° N
SL-24 R/B 3.9 06:48:24 10° N 06:52:50 72° WNW 06:56:44 10° SSW
CSL-04 Rocket 4.2 06:49:54 10° NNE 06:55:10 66° ESE 07:00:26 10° S
Meteor 2-17 Rocket 4.5 06:50:44 10° NNW 06:56:48 64° W 07:02:52 10° S
